Tracking 35274 objects as of 10-Sep-2026
HD Live streaming from Space Station
objects crossing your sky now

FREGAT DEB


FREGAT DEB is no longer on orbit


NORAD ID: 45930
Int'l Code: 2011-037EU
Launch date: July 18, 2011
Source: Commonwealth of Independent States (former USSR) (CIS)
Launch site: TYURATAM MISSILE AND SPACE COMPLEX (TTMTR)
Decay date: 2022-05-01

Note: This is SATELLITE DEBRIS
Your satellite tracking list
Your tracking list is empty




NASA's NSSDC Master Catalog

Two Line Element Set (TLE):
1 45930U 11037EU  22118.38662475  .08083388  00000-0  30277+0 0  9994
2 45930  50.7979   4.4475 0114491 272.2623  86.5234 15.15753093 88720
Source of the keplerian elements: AFSPC